CARTOSAT-2A

Last updated on Sat Jul 05 2025 00:02:28 GMT+0000 (Coordinated Universal Time)

1 32783U 08021A 25185.62929721 .00000594 00000+0 87765-4 0 9997 2 32783 97.8139 240.2856 0011785 154.8764 205.3023 14.78717803927522
UTC large
Height (km)
Speed (km/s)
/
Latitude / Longitude
Inclination (degrees)
Orbital Period (minutes)
Azimuth
Elevation
Range (km)
Doppler Factor

Next 0 passes for location: London (51.5072 / 0.1276)

Sorry there are no passes over London.